Location: Bamazo
(6.7448°N, 10.8189°W)
Time: 01:34:48
(UTC+00:00)

Intelsat 5-3 Rocket - Pass Details

Date: 18 September 2020
Orbit: 281 x 6112 km, 23.6° (Epoch: 21 October)

Event Time Altitude Azimuth Distance (km) Brightness Sun altitude
Rises 20:11:56 0° 304° (NW) 2,888 7.0 -23.3°
Reaches altitude 10° 20:13:35 10° 309° (NW) 2,277 6.2 -23.7°
Maximum altitude 20:18:49 57° 29° (NNE) 1,477 4.2 -25.0°
Enters shadow 20:21:55 42° 82° (E) 2,210 4.8 -25.8°
